Orbital Elements at Epoch 2459200.5 (2020-Dec-17.0) TDB
Reference: JPL 11 (heliocentric ecliptic J2000)
Element | Value | Uncertainty (1-sigma) | Units |
e | .701527675535318 | 1.0572e-07 | |
a | 1.087177896453258 | 1.5908e-08 | au |
q | .3244925138610272 | 1.1697e-07 | au |
i | 23.8520130172891 | 1.8109e-05 | deg |
node | 310.8977015825817 | 1.5818e-05 | deg |
peri | 2.092963135886776 | 3.2842e-05 | deg |
M | 217.1776055345637 | 5.149e-05 | deg |
tp | 2459364.764288602839 (2021-May-30.26428860) | 5.8576e-05 | TDB |
period | 414.0467194823081 1.13 | 9.0879e-06 2.488e-08 | d yr |
n | .8694670989064134 | 1.9084e-08 | deg/d |
Q | 1.849863279045488 | 2.7068e-08 | au |
|
| | Orbit Determination Parameters
Additional Information
|